• En España
  • Lista de países
  • Para 7 días
  • Temperatura del agua
  • Mapa Satelital
  • El tiempo en el mapa
  • Informadores
  • user-avatar
    Iniciar sesión

    Tiempo cada hora Tibissa

    Hoy, 18 Octubre, Miércoles

    Tiempo Temperatura Precipitaciones Viento Presión Humedad
    00:00 +17°C° 0 mm 2 mps 689 mmHg 52%
    01:00 +16°C° 0 mm 2 mps 689 mmHg 56%
    02:00 +16°C° 0 mm 2 mps 689 mmHg 57%
    03:00 +16°C° 0 mm 2 mps 688 mmHg 59%
    04:00 +15°C° 0 mm 1 mps 688 mmHg 60%
    05:00 +15°C° 0 mm 1 mps 688 mmHg 60%
    06:00 +15°C° 0 mm 1 mps 688 mmHg 61%
    07:00 +15°C° 0 mm 2 mps 688 mmHg 61%
    08:00 +16°C° 0 mm 2 mps 688 mmHg 55%
    09:00 +18°C° 0 mm 2 mps 688 mmHg 48%
    10:00 +19°C° 0 mm 2 mps 689 mmHg 42%
    11:00 +20°C° 0 mm 2 mps 688 mmHg 38%
    12:00 +21°C° 0 mm 2 mps 688 mmHg 33%
    13:00 +23°C° 0 mm 2 mps 688 mmHg 29%
    14:00 +23°C° 0 mm 2 mps 688 mmHg 28%
    15:00 +23°C° 0 mm 2 mps 687 mmHg 28%
    16:00 +23°C° 0 mm 2 mps 687 mmHg 27%
    17:00 +23°C° 0 mm 2 mps 687 mmHg 30%
    18:00 +21°C° 0 mm 2 mps 686 mmHg 33%
    19:00 +20°C° 0 mm 2 mps 686 mmHg 37%
    20:00 +19°C° 0 mm 2 mps 686 mmHg 38%
    21:00 +19°C° 0 mm 2 mps 686 mmHg 40%
    22:00 +18°C° 0 mm 2 mps 686 mmHg 42%
    23:00 +18°C° 0 mm 2 mps 686 mmHg 43%

    Mañana, 19 Octubre, Jueves

    Tiempo Temperatura Precipitaciones Viento Presión Humedad
    00:00 +17°C° 0 mm 2 mps 686 mmHg 44%
    01:00 +17°C° 0 mm 2 mps 686 mmHg 45%
    02:00 +17°C° 0 mm 2 mps 685 mmHg 45%
    03:00 +16°C° 0 mm 2 mps 685 mmHg 46%
    04:00 +16°C° 0 mm 2 mps 685 mmHg 46%
    05:00 +15°C° 0 mm 2 mps 685 mmHg 47%
    06:00 +15°C° 0 mm 2 mps 685 mmHg 47%
    07:00 +15°C° 0 mm 2 mps 685 mmHg 48%
    08:00 +17°C° 0 mm 3 mps 685 mmHg 42%
    09:00 +18°C° 0 mm 3 mps 686 mmHg 36%
    10:00 +20°C° 0 mm 4 mps 686 mmHg 30%
    11:00 +21°C° 0 mm 4 mps 686 mmHg 28%
    12:00 +22°C° 0 mm 4 mps 686 mmHg 26%
    13:00 +23°C° 0 mm 5 mps 686 mmHg 24%
    14:00 +23°C° 0 mm 5 mps 685 mmHg 24%
    15:00 +25°C° 0 mm 5 mps 685 mmHg 25%
    16:00 +25°C° 0 mm 5 mps 685 mmHg 25%
    17:00 +23°C° 0 mm 5 mps 684 mmHg 28%
    18:00 +22°C° 0 mm 4 mps 684 mmHg 30%
    19:00 +20°C° 0 mm 3 mps 684 mmHg 33%
    20:00 +20°C° 0 mm 3 mps 684 mmHg 34%
    21:00 +20°C° 0 mm 3 mps 684 mmHg 35%
    22:00 +19°C° 0 mm 3 mps 684 mmHg 36%
    23:00 +19°C° 0 mm 3 mps 684 mmHg 37%

    Pasado mañana, 20 Octubre, Viernes

    Tiempo Temperatura Precipitaciones Viento Presión Humedad
    00:00 +19°C° 0 mm 3 mps 684 mmHg 38%
    01:00 +19°C° 0 mm 3 mps 684 mmHg 39%
    02:00 +18°C° 0,1 mm 3 mps 684 mmHg 42%
    03:00 +18°C° 0,1 mm 3 mps 684 mmHg 45%
    04:00 +18°C° 0,1 mm 2 mps 683 mmHg 49%
    05:00 +17°C° 0,6 mm 2 mps 683 mmHg 54%
    06:00 +16°C° 0,6 mm 1 mps 683 mmHg 60%
    07:00 +15°C° 0,6 mm 1 mps 683 mmHg 65%
    08:00 +16°C° 0,5 mm 1 mps 684 mmHg 66%
    09:00 +16°C° 0,5 mm 2 mps 684 mmHg 67%
    10:00 +16°C° 0,5 mm 2 mps 684 mmHg 68%
    11:00 +16°C° 0,3 mm 2 mps 684 mmHg 66%
    12:00 +17°C° 0,3 mm 3 mps 684 mmHg 64%
    13:00 +17°C° 0,3 mm 3 mps 684 mmHg 62%
    14:00 +17°C° 0,6 mm 4 mps 684 mmHg 62%
    15:00 +17°C° 0,6 mm 4 mps 684 mmHg 62%
    16:00 +16°C° 0,6 mm 5 mps 684 mmHg 62%
    17:00 +15°C° 0,9 mm 5 mps 684 mmHg 65%
    18:00 +15°C° 0,9 mm 6 mps 684 mmHg 69%
    19:00 +14°C° 0,9 mm 6 mps 685 mmHg 72%
    20:00 +14°C° 0,2 mm 6 mps 685 mmHg 74%
    21:00 +13°C° 0,2 mm 6 mps 686 mmHg 75%
    22:00 +13°C° 0,2 mm 6 mps 686 mmHg 77%
    23:00 +13°C° 0 mm 6 mps 686 mmHg 77%

    21 Octubre, Sábado

    Tiempo Temperatura Precipitaciones Viento Presión Humedad
    00:00 +13°C° 0 mm 6 mps 686 mmHg 78%
    01:00 +13°C° 0 mm 6 mps 686 mmHg 78%
    02:00 +13°C° 0 mm 6 mps 686 mmHg 80%
    03:00 +12°C° 0 mm 7 mps 686 mmHg 81%
    04:00 +11°C° 0 mm 7 mps 686 mmHg 83%
    05:00 +12°C° 0 mm 7 mps 686 mmHg 83%
    06:00 +12°C° 0 mm 7 mps 686 mmHg 83%
    07:00 +12°C° 0 mm 7 mps 687 mmHg 83%
    08:00 +14°C° 0 mm 7 mps 687 mmHg 80%
    09:00 +14°C° 0 mm 7 mps 688 mmHg 77%
    10:00 +15°C° 0 mm 7 mps 689 mmHg 75%
    11:00 +16°C° 0 mm 7 mps 689 mmHg 72%
    12:00 +16°C° 0 mm 6 mps 689 mmHg 70%
    13:00 +17°C° 0 mm 6 mps 689 mmHg 68%
    14:00 +17°C° 0 mm 6 mps 689 mmHg 66%
    15:00 +17°C° 0 mm 6 mps 689 mmHg 65%
    16:00 +19°C° 0 mm 5 mps 689 mmHg 64%
    17:00 +17°C° 0 mm 5 mps 689 mmHg 67%
    18:00 +17°C° 0 mm 4 mps 689 mmHg 71%
    19:00 +17°C° 0 mm 3 mps 689 mmHg 74%
    20:00 +16°C° 0 mm 3 mps 689 mmHg 77%
    21:00 +16°C° 0 mm 2 mps 690 mmHg 80%
    22:00 +15°C° 0 mm 2 mps 690 mmHg 83%
    23:00 +15°C° 0 mm 1 mps 690 mmHg 85%

    22 Octubre, Domingo

    Tiempo Temperatura Precipitaciones Viento Presión Humedad
    00:00 +15°C° 0 mm 1 mps 690 mmHg 86%
    01:00 +14°C° 0 mm 1 mps 689 mmHg 88%
    02:00 +14°C° 0 mm 1 mps 689 mmHg 88%
    03:00 +14°C° 0 mm 1 mps 689 mmHg 89%
    04:00 +14°C° 0 mm 1 mps 689 mmHg 89%
    05:00 +14°C° 0 mm 1 mps 689 mmHg 89%
    06:00 +14°C° 0 mm 1 mps 689 mmHg 89%
    07:00 +13°C° 0 mm 1 mps 689 mmHg 89%
    08:00 +15°C° 0 mm 1 mps 690 mmHg 80%
    09:00 +16°C° 0 mm 1 mps 690 mmHg 72%
    10:00 +18°C° 0 mm 2 mps 691 mmHg 64%
    11:00 +19°C° 0 mm 2 mps 690 mmHg 58%
    12:00 +20°C° 0 mm 2 mps 690 mmHg 53%
    13:00 +21°C° 0 mm 3 mps 690 mmHg 48%
    14:00 +21°C° 0 mm 3 mps 690 mmHg 46%
    15:00 +21°C° 0 mm 3 mps 689 mmHg 45%
    16:00 +22°C° 0 mm 4 mps 689 mmHg 44%
    17:00 +21°C° 0 mm 4 mps 689 mmHg 49%
    18:00 +20°C° 0 mm 3 mps 689 mmHg 54%
    19:00 +19°C° 0 mm 3 mps 689 mmHg 59%
    20:00 +18°C° 0 mm 3 mps 689 mmHg 64%
    21:00 +18°C° 0 mm 3 mps 689 mmHg 69%
    22:00 +17°C° 0 mm 3 mps 689 mmHg 74%
    23:00 +17°C° 0 mm 2 mps 689 mmHg 77%

    23 Octubre, Lunes

    Tiempo Temperatura Precipitaciones Viento Presión Humedad
    00:00 +16°C° 0 mm 2 mps 689 mmHg 80%
    01:00 +16°C° 0 mm 2 mps 688 mmHg 83%
    02:00 +16°C° 0 mm 2 mps 688 mmHg 84%
    03:00 +15°C° 0 mm 2 mps 688 mmHg 84%
    04:00 +14°C° 0 mm 3 mps 688 mmHg 84%
    05:00 +14°C° 0 mm 3 mps 688 mmHg 85%
    06:00 +14°C° 0 mm 3 mps 688 mmHg 85%
    07:00 +13°C° 0 mm 3 mps 687 mmHg 86%
    08:00 +14°C° 0 mm 4 mps 688 mmHg 78%
    09:00 +15°C° 0 mm 4 mps 688 mmHg 71%
    10:00 +16°C° 0 mm 5 mps 688 mmHg 64%
    11:00 +17°C° 0 mm 6 mps 688 mmHg 60%
    12:00 +17°C° 0 mm 7 mps 688 mmHg 56%
    13:00 +18°C° 0 mm 7 mps 688 mmHg 51%
    14:00 +18°C° 0 mm 7 mps 688 mmHg 51%
    15:00 +18°C° 0 mm 8 mps 687 mmHg 51%
    16:00 +17°C° 0 mm 8 mps 687 mmHg 50%
    17:00 +16°C° 0 mm 7 mps 687 mmHg 55%
    18:00 +16°C° 0 mm 7 mps 687 mmHg 60%
    19:00 +15°C° 0 mm 6 mps 687 mmHg 65%
    20:00 +14°C° 0 mm 6 mps 687 mmHg 69%
    21:00 +13°C° 0 mm 6 mps 687 mmHg 73%
    22:00 +13°C° 0 mm 5 mps 687 mmHg 77%
    23:00 +13°C° 0 mm 5 mps 687 mmHg 79%
    Mostrar más